#timestamp,LO_Frequency,Hit,StdDev 
1547978415.5,286046999.5,N
1547978435.4,286046998.2,N
1547978455.2,286046998.7,N
1547978475.0,286046998.3,N
1547978476.0,286046998.3,N
1547978495.8,286046998.3,N
1547978545.7,286046999.9,E
1547978555.6,286047002.6,N
1547978575.4,286047001.6,P
1547978595.3,286047000.6,N
1547978615.1,286046999.7,N
1547978616.0,286046999.7,N
1547978635.8,286047002.7,N
1547978655.7,286046999.8,N
1547978675.5,286047002.1,N
1547978695.3,286047000.8,N
1547978715.2,286047002.4,N
1547978735.0,286046998.3,N
1547978735.9,286046998.3,N
1547978755.8,286046998.9,N
1547978775.6,286046998.8,N
1547978795.4,286046998.5,N
1547978815.3,286047000.7,N
1547978835.1,286046998.6,N
1547978855.9,286046997.9,N
1547978875.7,286046999.6,N
1547978895.5,286046999.3,N
1547978915.4,286046999.5,N
1547978935.2,286046998.6,N
1547978955.0,286047000.9,N
1547978956.0,286047000.9,N
1547978975.8,286047000.7,N
1547978995.6,286047001.0,N
1547979015.5,286046999.7,N
1547979035.3,286047002.7,N
1547979055.1,286046999.0,N
1547979075.9,286046999.4,N
1547979095.7,286047000.6,N
1547979115.6,286047000.0,N
1547979135.4,286047001.0,N
1547979155.2,286047000.3,N
1547979175.1,286047000.5,N
1547979176.0,286047000.5,N
1547979195.8,286046998.4,N
1547979215.7,286046999.3,N
1547979235.5,286047000.8,N
1547979255.3,286047002.6,N
1547979275.2,286047002.6,N
1547979295.0,286047002.8,N
1547979295.9,286047002.8,N
1547979315.8,286047001.2,N
1547979335.6,286047000.8,N
1547979355.4,286046999.4,N
1547979375.3,286046998.7,N
1547979395.1,286046998.8,N
1547979415.8,286046998.5,N
1547979435.7,286046998.8,N
1547979455.4,286047000.8,N
1547979475.2,286047000.2,N
1547979495.1,286046998.9,N
1547979496.0,286046998.9,N
1547979515.8,286046998.2,N
1547979535.7,286046998.3,N
1547979555.5,286047000.7,N
1547979575.3,286047000.0,N
1547979595.2,286047000.7,N
1547979615.0,286046999.6,N
1547979615.9,286046999.6,N
1547979635.7,286046999.4,N
1547979655.6,286046999.1,N
1547979675.4,286046997.4,N
1547979695.3,286047001.0,N
1547979715.1,286046999.9,N
1547979716.0,286046999.9,N
1547979735.8,286046998.3,N
1547979755.7,286046998.1,N
1547979775.5,286046998.1,N
1547979795.3,286046998.5,N
1547979815.2,286047001.1,N
1547979835.0,286046998.1,N
1547979835.9,286046998.1,N
1547979855.8,286047000.1,N
1547979875.6,286047002.2,N
1547979895.4,286047001.4,N
1547979915.3,286047001.5,N
1547979935.1,286047002.3,N
1547979955.9,286046999.8,N
1547979975.7,286047001.0,N
1547979995.5,286047004.4,Y
1547980015.4,286047000.1,P
1547980035.2,286047000.1,N
1547980055.5,286047001.2,P
1547980075.3,286046998.9,N
1547980095.1,286046998.2,N
1547980115.9,286047000.1,N
1547980135.7,286047001.4,N
1547980155.6,286047002.3,N
1547980175.4,286046999.7,N
1547980195.2,286047001.2,N
1547980215.1,286047000.6,N
1547980216.0,286047000.6,N
1547980235.8,286046998.3,N
1547980255.7,286046997.3,N
1547980275.5,286046998.4,N
1547980295.3,286046999.9,N
1547980315.2,286047002.4,N
1547980335.9,286047001.9,N
1547980355.7,286047001.7,N
1547980375.6,286046999.7,N
1547980395.4,286047000.9,N
1547980415.2,286047001.9,N
1547980435.1,286047003.3,N
1547980436.0,286047003.3,N
1547980455.8,286047004.0,N
1547980475.4,286047003.5,N
1547980495.3,286047003.3,N
1547980515.1,286047004.8,N
1547980535.9,286047005.2,N
1547980555.7,286047005.9,N
1547980575.5,286047003.8,N
1547980595.4,286047001.4,N
1547980615.2,286047004.0,N
1547980635.1,286047001.5,N
1547980636.0,286047001.5,N
1547980655.8,286047004.3,N
1547980675.6,286047002.0,N
1547980695.5,286047002.4,N
1547980715.3,286047004.4,N
1547980735.1,286047003.7,N
1547980755.8,286047003.3,N
1547980775.6,286047001.9,N
1547980795.5,286047002.6,N
1547980815.3,286047000.4,N
1547980835.1,286047000.9,N
1547980855.9,286046998.3,N
1547980875.7,286046997.7,N
1547980895.6,286046998.5,N
1547980915.4,286047000.7,N
1547980935.2,286047000.9,N
1547980955.1,286047001.5,N
1547980956.0,286047001.5,N
1547980975.8,286047003.8,N
1547980995.6,286047004.4,N
1547981015.5,286047001.7,N
1547981035.3,286047003.5,N
1547981055.2,286047003.5,N
1547981075.9,286047007.6,Y
1547981095.7,286047004.4,P
1547981115.6,286047000.0,N
1547981135.4,286046999.9,N
1547981155.2,286046998.6,N
1547981175.1,286046999.8,N
1547981176.0,286046999.8,N
1547981195.8,286047002.4,N
1547981215.7,286047000.7,N
1547981235.5,286047000.7,N
1547981255.3,286046998.6,N
1547981275.2,286047000.5,N
1547981295.0,286047000.0,N
1547981295.9,286047000.0,N
1547981315.7,286047000.3,N
1547981335.6,286047000.8,N
1547981355.4,286046999.1,N
1547981375.3,286046999.9,N
1547981395.1,286047002.1,N
1547981415.8,286047001.7,N
1547981435.6,286047002.0,N
1547981455.4,286047001.9,N
1547981475.3,286047001.8,N
1547981495.1,286046999.6,N
1547981515.8,286046999.3,N
1547981535.7,286046999.0,N
1547981555.5,286047000.4,N
1547981575.4,286046998.6,N
1547981595.2,286046999.6,N
1547981615.0,286046997.6,N
1547981615.9,286046997.6,N
1547981635.8,286046996.2,N
1547981655.6,286046994.1,Y
1547981675.4,286046998.0,P
1547981695.3,286046997.9,N
1547981715.1,286046997.7,N
1547981735.9,286046997.4,N
1547981755.7,286046996.6,Y
1547981775.5,286047000.5,P
1547981795.4,286047004.3,P
1547981815.2,286047004.3,N
1547981835.0,286047001.5,N
1547981836.0,286047001.5,N
1547981855.8,286047000.0,N
1547981875.6,286047002.5,N
1547981895.5,286047002.0,N
1547981915.3,286046999.9,N
1547981935.1,286047004.0,N
1547981955.9,286047006.0,Y
1547981975.7,286047001.4,P
1547981995.6,286047002.0,P
